| time (UTC) | temp C | wind direction | speed KPH | gust KPH | rain 1hr cm | rain 24hr cm | rain mn cm | humidity % | barometer mb |
| 20260502161213 | 15 | 157 | 1.6 | 3.2 | 0.00 | 0.00 | 0.10 | 82 | 1016.3 |
| 20260502160714 | 15 | 135 | 1.6 | 3.2 | 0.00 | 0.00 | 0.10 | 81 | 1016.3 |
| 20260502160212 | 15 | 184 | 6.4 | 9.7 | 0.00 | 0.00 | 0.10 | 82 | 1016.3 |
| 20260502152212 | 16 | 201 | 6.4 | 9.7 | 0.00 | 0.00 | 0.10 | 81 | 1016.9 |
| 20260502151712 | 16 | 199 | 6.4 | 8.0 | 0.00 | 0.00 | 0.10 | 81 | 1016.9 |
| 20260502151212 | 16 | 251 | 9.7 | 12.9 | 0.00 | 0.00 | 0.10 | 81 | 1016.9 |
| 20260502150713 | 16 | 271 | 4.8 | 4.8 | 0.00 | 0.00 | 0.10 | 80 | 1016.6 |
| 20260502150212 | 16 | 121 | 4.8 | 11.3 | 0.00 | 0.00 | 0.10 | 80 | 1016.6 |
| 20260502130713 | 16 | 128 | 11.3 | 17.7 | 0.00 | 0.00 | 0.10 | 82 | 1017.9 |
| 20260502130213 | 15 | 165 | 4.8 | 8.0 | 0.00 | 0.00 | 0.10 | 82 | 1017.9 |
| 20260502123712 | 16 | 172 | 6.4 | 12.9 | 0.00 | 0.00 | 0.10 | 81 | 1018.3 |
| 20260502123213 | 16 | 174 | 8.0 | 17.7 | 0.00 | 0.00 | 0.10 | 80 | 1018.3 |
| 20260502122713 | 16 | 148 | 8.0 | 17.7 | 0.00 | 0.00 | 0.10 | 80 | 1018.6 |
| 20260502122212 | 16 | 165 | 6.4 | 12.9 | 0.00 | 0.00 | 0.10 | 80 | 1018.6 |
| 20260502121713 | 16 | 149 | 6.4 | 12.9 | 0.00 | 0.00 | 0.10 | 80 | 1018.3 |
| 20260502121212 | 16 | 187 | 8.0 | 17.7 | 0.00 | 0.00 | 0.10 | 79 | 1018.3 |
| 20260502120713 | 16 | 193 | 4.8 | 14.5 | 0.00 | 0.00 | 0.10 | 79 | 1018.3 |
| 20260502120213 | 16 | 113 | 1.6 | 9.7 | 0.00 | 0.00 | 0.10 | 80 | 1018.3 |
| 20260502115714 | 16 | 148 | 6.4 | 9.7 | 0.00 | 0.00 | 0.10 | 81 | 1018.6 |
| 20260502115212 | 16 | 278 | 9.7 | 12.9 | 0.00 | 0.00 | 0.10 | 82 | 1018.6 |
| 20260502114712 | 16 | 131 | 4.8 | 8.0 | 0.00 | 0.00 | 0.10 | 81 | 1018.6 |
| 20260502114215 | 16 | 124 | 6.4 | 11.3 | 0.00 | 0.00 | 0.10 | 83 | 1018.6 |
| 20260502113712 | 16 | 222 | 6.4 | 14.5 | 0.00 | 0.00 | 0.10 | 81 | 1018.6 |
| 20260502113212 | 16 | 178 | 4.8 | 11.3 | 0.00 | 0.00 | 0.10 | 81 | 1018.6 |
| 20260502112713 | 17 | 155 | 4.8 | 4.8 | 0.00 | 0.00 | 0.10 | 80 | 1018.6 |
| 20260502112212 | 16 | 222 | 9.7 | 12.9 | 0.00 | 0.00 | 0.10 | 82 | 1018.6 |
| 20260502111712 | 16 | 272 | 4.8 | 11.3 | 0.00 | 0.00 | 0.10 | 82 | 1019.0 |
| 20260502111212 | 17 | 162 | 4.8 | 9.7 | 0.00 | 0.00 | 0.10 | 81 | 1018.6 |
| 20260502110713 | 16 | 198 | 6.4 | 12.9 | 0.00 | 0.00 | 0.10 | 81 | 1019.0 |
| 20260502110213 | 16 | 179 | 1.6 | 8.0 | 0.00 | 0.00 | 0.10 | 85 | 1019.0 |
| 20260502105713 | 16 | 211 | 4.8 | 9.7 | 0.00 | 0.00 | 0.10 | 86 | 1019.3 |
| 20260502105212 | 15 | 133 | 1.6 | 8.0 | 0.00 | 0.00 | 0.10 | 85 | 1019.3 |
| 20260502104713 | 15 | 169 | 1.6 | 8.0 | 0.00 | 0.00 | 0.10 | 84 | 1019.3 |
| 20260502104213 | 15 | 152 | 4.8 | 4.8 | 0.00 | 0.00 | 0.10 | 85 | 1019.3 |
| 20260502103713 | 15 | 206 | 6.4 | 8.0 | 0.00 | 0.00 | 0.10 | 85 | 1019.3 |
| 20260502103212 | 15 | 145 | 1.6 | 11.3 | 0.00 | 0.00 | 0.10 | 86 | 1019.6 |
| 20260502102713 | 15 | 190 | 1.6 | 9.7 | 0.00 | 0.00 | 0.10 | 86 | 1019.6 |
| 20260502102212 | 15 | 204 | 6.4 | 9.7 | 0.00 | 0.00 | 0.10 | 84 | 1019.6 |
| 20260502101712 | 15 | 192 | 3.2 | 4.8 | 0.00 | 0.00 | 0.10 | 83 | 1019.3 |
| 20260502101213 | 15 | 185 | 1.6 | 11.3 | 0.00 | 0.00 | 0.10 | 83 | 1019.3 |
| 20260502100712 | 15 | 186 | 4.8 | 8.0 | 0.00 | 0.00 | 0.10 | 85 | 1019.3 |
| 20260502100214 | 15 | 246 | 4.8 | 8.0 | 0.00 | 0.00 | 0.10 | 85 | 1019.3 |
| 20260502091213 | 15 | 97 | 4.8 | 8.0 | 0.00 | 0.00 | 0.10 | 85 | 1019.6 |
| 20260502090713 | 15 | 153 | 1.6 | 4.8 | 0.00 | 0.00 | 0.10 | 85 | 1019.3 |
| 20260502090212 | 15 | 144 | 1.6 | 8.0 | 0.00 | 0.00 | 0.10 | 85 | 1019.3 |
| 20260502071213 | 13 | 149 | 1.6 | 4.8 | 0.00 | 0.00 | 0.10 | 95 | 1020.3 |
| 20260502070712 | 12 | 152 | 0.0 | 4.8 | 0.18 | 0.00 | 0.10 | 95 | 1020.3 |
| 20260502070214 | 13 | 150 | 0.0 | 1.6 | 0.18 | 0.00 | 0.10 | 95 | 1020.3 |
| 20260502065712 | 13 | 133 | 0.0 | 3.2 | 0.00 | 0.00 | 0.08 | 95 | 1020.0 |
| 20260502065212 | 13 | 131 | 0.0 | 4.8 | 0.00 | 0.00 | 0.08 | 95 | 1020.0 |
| 20260502064712 | 13 | 159 | 0.0 | 1.6 | 0.18 | 0.00 | 0.08 | 95 | 1020.0 |
| 20260502064212 | 13 | 166 | 1.6 | 3.2 | 0.18 | 0.00 | 0.08 | 94 | 1020.0 |
| 20260502063712 | 13 | 111 | 4.8 | 4.8 | 0.13 | 0.00 | 0.05 | 93 | 1020.0 |
| 20260502063213 | 13 | 175 | 1.6 | 8.0 | 0.13 | 0.00 | 0.05 | 92 | 1020.0 |
| 20260502062712 | 13 | 164 | 0.0 | 8.0 | 0.00 | 0.00 | 0.03 | 91 | 1020.0 |
| 20260502062213 | 13 | 132 | 1.6 | 3.2 | 0.00 | 0.00 | 0.03 | 91 | 1020.0 |
| 20260502061713 | 13 | 142 | 1.6 | 8.0 | 0.00 | 0.00 | 0.03 | 91 | 1020.0 |
| 20260502061212 | 13 | 182 | 0.0 | 1.6 | 0.00 | 0.00 | 0.03 | 92 | 1020.0 |
| 20260502060712 | 13 | 100 | 1.6 | 9.7 | 0.00 | 0.00 | 0.03 | 93 | 1020.0 |
| 20260502060212 | 13 | 145 | 0.0 | 1.6 | 0.00 | 0.00 | 0.03 | 94 | 1020.0 |
| 20260502055713 | 13 | 153 | 0.0 | 3.2 | 0.00 | 0.00 | 0.03 | 94 | 1019.6 |
| 20260502055213 | 13 | 117 | 1.6 | 3.2 | 0.00 | 0.00 | 0.03 | 94 | 1020.0 |
| 20260502054712 | 13 | 89 | 4.8 | 12.9 | 0.00 | 0.00 | 0.03 | 94 | 1019.6 |
| 20260502054212 | 13 | 184 | 4.8 | 8.0 | 0.00 | 0.00 | 0.03 | 94 | 1019.3 |
| 20260502053713 | 13 | 132 | 3.2 | 8.0 | 0.00 | 0.00 | 0.03 | 95 | 1019.6 |
| 20260502053213 | 13 | 157 | 0.0 | 1.6 | 0.00 | 0.00 | 0.03 | 95 | 1019.6 |
| 20260502052712 | 13 | 123 | 1.6 | 9.7 | 0.00 | 0.00 | 0.03 | 95 | 1019.6 |
| 20260502052213 | 13 | 129 | 4.8 | 4.8 | 0.00 | 0.00 | 0.03 | 95 | 1019.3 |
| 20260502051713 | 13 | 254 | 4.8 | 8.0 | 0.00 | 0.00 | 0.03 | 96 | 1019.6 |
| 20260502051212 | 13 | 118 | 1.6 | 1.6 | 0.00 | 0.00 | 0.03 | 95 | 1019.6 |
| 20260502050712 | 13 | 159 | 1.6 | 8.0 | 0.00 | 0.00 | 0.03 | 95 | 1019.3 |
| 20260502050213 | 13 | 144 | 3.2 | 8.0 | 0.00 | 0.00 | 0.03 | 95 | 1019.3 |
| 20260502045712 | 13 | 106 | 3.2 | 9.7 | 0.00 | 0.00 | 0.03 | 95 | 1019.3 |
| 20260502045214 | 13 | 125 | 4.8 | 4.8 | 0.00 | 0.00 | 0.03 | 95 | 1019.3 |
| 20260502044712 | 13 | 122 | 4.8 | 4.8 | 0.18 | 0.00 | 0.03 | 95 | 1019.3 |
| 20260502044213 | 13 | 174 | 1.6 | 8.0 | 0.18 | 0.00 | 0.03 | 94 | 1019.3 |
| 20260502043713 | 13 | 154 | 1.6 | 4.8 | 0.00 | 0.00 | 0.00 | 94 | 1019.3 |
| 20260502043212 | 13 | 112 | 1.6 | 4.8 | 0.00 | 0.00 | 0.00 | 94 | 1019.3 |
| 20260502042712 | 13 | 129 | 0.0 | 0.0 | 0.00 | 0.00 | 0.00 | 94 | 1019.3 |
| 20260502042213 | 14 | 108 | 1.6 | 3.2 | 0.00 | 0.00 | 0.00 | 93 | 1019.3 |
| 20260502041713 | 14 | 177 | 1.6 | 3.2 | 0.00 | 0.00 | 0.00 | 93 | 1019.0 |
| 20260502041213 | 14 | 183 | 1.6 | 3.2 | 0.00 | 0.00 | 0.00 | 93 | 1019.3 |
| 20260502040713 | 13 | 156 | 0.0 | 1.6 | 0.00 | 0.00 | 0.00 | 93 | 1019.3 |
| 20260502040212 | 13 | 145 | 0.0 | 1.6 | 0.00 | 0.00 | 0.00 | 93 | 1019.3 |
| 20260502035713 | 14 | 119 | 3.2 | 4.8 | 0.00 | 0.00 | 0.00 | 92 | 1019.3 |
| 20260502035212 | 14 | 132 | 3.2 | 4.8 | 0.00 | 0.00 | 0.00 | 92 | 1019.3 |
| 20260502034713 | 14 | 127 | 3.2 | 3.2 | 0.00 | 0.00 | 0.00 | 91 | 1019.3 |
| 20260502034214 | 14 | 137 | 0.0 | 1.6 | 0.00 | 0.00 | 0.00 | 91 | 1019.3 |
| 20260502033713 | 14 | 134 | 0.0 | 3.2 | 0.00 | 0.00 | 0.00 | 91 | 1019.3 |
| 20260502033213 | 14 | 131 | 4.8 | 8.0 | 0.00 | 0.00 | 0.00 | 90 | 1019.3 |
| 20260502032712 | 14 | 157 | 0.0 | 1.6 | 0.00 | 0.00 | 0.00 | 90 | 1019.6 |
| 20260502032212 | 14 | 146 | 0.0 | 1.6 | 0.00 | 0.00 | 0.00 | 89 | 1019.3 |
| 20260502031713 | 14 | 95 | 3.2 | 4.8 | 0.00 | 0.00 | 0.00 | 89 | 1019.3 |
| 20260502031212 | 14 | 86 | 1.6 | 4.8 | 0.00 | 0.00 | 0.00 | 88 | 1019.6 |
| 20260502030712 | 14 | 167 | 1.6 | 1.6 | 0.00 | 0.00 | 0.00 | 88 | 1019.6 |
| 20260502030212 | 14 | 122 | 1.6 | 1.6 | 0.00 | 0.00 | 0.00 | 88 | 1019.3 |
| 20260502025720 | 14 | 162 | 0.0 | 1.6 | 0.00 | 0.00 | 0.00 | 88 | 1019.6 |
| 20260502025212 | 14 | 102 | 6.4 | 9.7 | 0.00 | 0.00 | 0.00 | 88 | 1019.3 |
| 20260502024712 | 14 | 169 | 1.6 | 4.8 | 0.00 | 0.00 | 0.00 | 88 | 1019.6 |
| 20260502024212 | 14 | 119 | 3.2 | 4.8 | 0.00 | 0.00 | 0.00 | 88 | 1019.6 |
| 20260502023712 | 14 | 120 | 0.0 | 8.0 | 0.00 | 0.00 | 0.00 | 87 | 1019.6 |
| 20260502023212 | 14 | 136 | 3.2 | 3.2 | 0.00 | 0.00 | 0.00 | 87 | 1019.6 |
| 20260502022712 | 14 | 159 | 0.0 | 1.6 | 0.00 | 0.00 | 0.00 | 87 | 1019.6 |
| 20260502022213 | 14 | 130 | 1.6 | 3.2 | 0.00 | 0.00 | 0.00 | 88 | 1019.6 |
| 20260502021713 | 14 | 136 | 3.2 | 12.9 | 0.00 | 0.00 | 0.00 | 88 | 1019.6 |
| 20260502021213 | 14 | 96 | 4.8 | 8.0 | 0.00 | 0.00 | 0.00 | 87 | 1019.3 |
| 20260502020713 | 14 | 169 | 3.2 | 4.8 | 0.00 | 0.00 | 0.00 | 88 | 1019.6 |
| 20260502020213 | 14 | 141 | 3.2 | 9.7 | 0.00 | 0.00 | 0.00 | 88 | 1019.6 |
| 20260502015712 | 14 | 117 | 1.6 | 3.2 | 0.00 | 0.00 | 0.00 | 88 | 1019.6 |
| 20260502015214 | 14 | 207 | 8.0 | 12.9 | 0.00 | 0.00 | 0.00 | 88 | 1019.6 |
| 20260502014712 | 14 | 235 | 3.2 | 4.8 | 0.00 | 0.00 | 0.00 | 89 | 1019.6 |
| 20260502014215 | 14 | 135 | 3.2 | 3.2 | 0.00 | 0.00 | 0.00 | 89 | 1019.6 |
| 20260502013712 | 14 | 152 | 0.0 | 3.2 | 0.00 | 0.00 | 0.00 | 89 | 1020.0 |
| 20260502013212 | 14 | 139 | 0.0 | 4.8 | 0.00 | 0.00 | 0.00 | 89 | 1019.6 |
| 20260502012712 | 14 | 167 | 1.6 | 9.7 | 0.00 | 0.00 | 0.00 | 89 | 1019.6 |
| 20260502012212 | 14 | 156 | 0.0 | 0.0 | 0.00 | 0.00 | 0.00 | 89 | 1019.6 |
| 20260502011713 | 14 | 117 | 1.6 | 11.3 | 0.00 | 0.00 | 0.00 | 89 | 1020.0 |
| 20260502011212 | 14 | 141 | 0.0 | 1.6 | 0.00 | 0.00 | 0.00 | 90 | 1020.0 |
| 20260502010712 | 14 | 118 | 6.4 | 8.0 | 0.00 | 0.00 | 0.00 | 90 | 1020.0 |
| 20260502010213 | 14 | 140 | 1.6 | 3.2 | 0.00 | 0.00 | 0.00 | 89 | 1020.0 |
| 20260502005713 | 14 | 155 | 4.8 | 4.8 | 0.00 | 0.00 | 0.00 | 89 | 1020.0 |
| 20260502005213 | 14 | 124 | 1.6 | 3.2 | 0.00 | 0.00 | 0.00 | 88 | 1020.0 |
| 20260502004712 | 14 | 157 | 0.0 | 1.6 | 0.00 | 0.00 | 0.00 | 89 | 1020.3 |
| 20260502004213 | 14 | 104 | 1.6 | 3.2 | 0.00 | 0.00 | 0.00 | 89 | 1020.0 |
| 20260502003712 | 14 | 192 | 1.6 | 4.8 | 0.00 | 0.00 | 0.00 | 89 | 1020.0 |
| 20260502003212 | 14 | 186 | 1.6 | 4.8 | 0.00 | 0.00 | 0.00 | 90 | 1020.3 |
| 20260502002713 | 14 | 135 | 4.8 | 9.7 | 0.00 | 0.00 | 0.00 | 91 | 1020.7 |